TimeMST,TemperatureF,Dew PointF,Humidity,Sea Level PressureIn,VisibilityMPH,Wind Direction,Wind SpeedMPH,Gust SpeedMPH,PrecipitationIn,Events,Conditions,WindDirDegrees,DateUTC
12:53 AM,45.0,19.9,37,30.03,10.0,WSW,5.8,-,N/A,,Clear,240,2012-11-04 06:53:00
1:53 AM,44.1,19.9,38,30.03,10.0,WSW,4.6,-,N/A,,Clear,240,2012-11-04 07:53:00
1:53 AM,41.0,19.0,41,30.05,10.0,NE,3.5,-,N/A,,Clear,40,2012-11-04 08:53:00
2:53 AM,39.9,19.0,43,30.05,10.0,Calm,Calm,-,N/A,,Clear,0,2012-11-04 09:53:00
3:53 AM,41.0,19.9,43,30.06,10.0,Calm,Calm,-,N/A,,Clear,0,2012-11-04 10:53:00
4:53 AM,41.0,21.0,45,30.06,10.0,Calm,Calm,-,N/A,,Clear,0,2012-11-04 11:53:00
5:53 AM,39.9,23.0,51,30.10,10.0,SW,4.6,-,N/A,,Clear,230,2012-11-04 12:53:00
6:53 AM,39.0,21.0,49,30.13,10.0,Calm,Calm,-,N/A,,Clear,0,2012-11-04 13:53:00
7:53 AM,50.0,23.0,35,30.12,10.0,NE,3.5,-,N/A,,Clear,40,2012-11-04 14:53:00
8:53 AM,60.1,26.1,27,30.12,10.0,ENE,6.9,-,N/A,,Clear,60,2012-11-04 15:53:00
9:53 AM,66.9,26.1,21,30.11,10.0,East,11.5,-,N/A,,Clear,80,2012-11-04 16:53:00
10:53 AM,72.0,26.1,18,30.11,10.0,ENE,11.5,-,N/A,,Clear,70,2012-11-04 17:53:00
11:53 AM,73.9,27.0,18,30.08,10.0,ESE,5.8,-,N/A,,Clear,110,2012-11-04 18:53:00
12:53 PM,75.9,27.0,16,30.05,10.0,ESE,5.8,-,N/A,,Clear,120,2012-11-04 19:53:00
1:53 PM,75.0,23.0,14,30.04,10.0,WSW,4.6,-,N/A,,Clear,240,2012-11-04 20:53:00
2:53 PM,75.9,23.0,14,30.04,10.0,SE,3.5,-,N/A,,Clear,140,2012-11-04 21:53:00
3:53 PM,75.0,21.9,14,30.04,10.0,SE,4.6,-,N/A,,Clear,130,2012-11-04 22:53:00
4:53 PM,73.0,21.9,15,30.04,10.0,SSE,4.6,-,N/A,,Clear,150,2012-11-04 23:53:00
5:53 PM,66.0,23.0,20,30.07,10.0,SSW,4.6,-,N/A,,Clear,200,2012-11-05 00:53:00
6:53 PM,60.1,23.0,24,30.10,10.0,SW,3.5,-,N/A,,Clear,220,2012-11-05 01:53:00
7:53 PM,55.9,24.1,29,30.09,10.0,WNW,3.5,-,N/A,,Clear,300,2012-11-05 02:53:00
8:53 PM,54.0,21.0,28,30.09,10.0,NNW,6.9,-,N/A,,Clear,330,2012-11-05 03:53:00
9:53 PM,51.1,19.9,29,30.09,10.0,NW,5.8,-,N/A,,Clear,320,2012-11-05 04:53:00
10:53 PM,48.9,18.0,29,30.08,10.0,SW,4.6,-,N/A,,Clear,220,2012-11-05 05:53:00